Date,TemperatureHighF,TemperatureAvgF,TemperatureLowF,DewpointHighF,DewpointAvgF,DewpointLowF,HumidityHigh,HumidityAvg,HumidityLow,PressureMaxIn,PressureMinIn,WindSpeedMaxMPH,WindSpeedAvgMPH,GustSpeedMaxMPH,PrecipitationSumIn
2013-3-1,30.9,23.0,9.9,16.4,12.9,4.7,81,65,47,30.33,30.20,18,4,20,0.00
2013-3-2,30.6,14.2,-4.8,13.1,4.8,-10.7,86,67,45,30.35,30.14,10,1,11,0.00
2013-3-3,31.6,19.1,3.2,8.4,2.0,-4.2,81,51,28,30.14,29.98,16,5,17,0.00
2013-3-4,27.0,24.3,20.2,20.9,12.3,-3.2,88,62,34,30.03,29.95,27,6,27,0.00
2013-3-5,28.7,23.7,15.4,23.9,20.3,12.0,90,86,80,30.27,29.97,15,4,18,0.59
2013-3-6,30.6,17.4,4.3,17.2,11.2,-0.1,88,77,53,30.40,30.26,18,2,21,0.00
2013-3-7,32.2,14.1,-6.5,18.3,5.1,-12.3,83,68,50,30.40,30.27,13,3,15,0.00
2013-3-8,36.9,30.7,19.4,27.6,23.2,12.9,82,74,65,30.28,30.04,19,9,19,0.00
2013-3-9,35.3,34.0,32.4,33.9,31.5,25.9,97,91,70,30.04,29.65,23,8,23,0.24
2013-3-10,34.1,31.8,28.4,32.6,27.5,21.8,99,84,75,29.92,29.73,24,10,25,0.00
2013-3-11,31.3,26.7,23.3,22.5,20.4,17.1,82,77,60,29.83,29.68,19,6,20,0.00
2013-3-12,30.7,23.0,17.3,19.2,13.3,7.5,84,67,39,30.13,29.76,26,7,32,0.00
2013-3-13,35.9,21.1,8.4,13.1,8.9,4.8,85,61,32,30.33,30.13,15,3,16,0.00
2013-3-14,39.5,28.4,21.1,26.9,21.5,11.9,88,76,58,30.22,29.97,15,6,18,0.03
2013-3-15,34.6,28.6,19.7,30.0,23.4,15.9,93,81,56,29.97,29.83,17,4,18,0.24
2013-3-16,27.8,18.7,9.2,15.9,9.2,-1.3,86,67,43,30.21,29.89,17,6,21,0.00
2013-3-17,24.1,8.4,-5.0,7.3,-2.3,-11.3,76,62,44,30.26,30.04,25,6,25,0.00
2013-3-18,26.6,20.3,12.4,24.3,14.1,3.5,91,77,66,29.72,29.54,27,13,29,0.04
2013-3-19,25.7,13.6,5.6,5.6,0.5,-7.8,72,56,40,30.13,29.72,25,10,25,0.00
2013-3-20,24.5,11.8,1.8,4.8,-2.4,-9.1,66,53,39,30.16,30.07,26,8,27,0.00
2013-3-21,31.3,12.8,-7.0,10.2,1.3,-13.4,81,62,38,30.12,30.03,14,1,14,0.00
2013-3-22,38.9,19.1,-3.1,16.9,6.9,-9.0,82,61,35,30.07,29.99,10,1,11,0.00
2013-3-23,41.5,28.2,14.8,22.8,15.8,8.6,78,61,43,30.13,30.02,9,1,10,0.00
2013-3-24,33.1,28.9,24.5,23.0,19.3,16.8,73,67,58,30.04,29.95,20,6,20,0.00
2013-3-25,40.8,28.0,13.8,21.6,16.3,10.1,86,63,39,30.15,30.00,23,4,24,0.00
2013-3-26,40.8,34.0,28.2,23.4,19.6,13.1,70,56,33,30.23,30.14,12,2,14,0.00
2013-3-27,46.2,34.7,26.3,23.2,19.1,13.6,73,55,29,30.28,30.23,12,1,13,0.00
2013-3-28,46.2,31.4,15.4,22.4,17.5,11.4,85,59,32,30.31,30.23,11,3,12,0.00
2013-3-29,44.9,34.8,21.9,34.1,24.9,16.3,86,68,53,30.24,30.01,24,9,24,0.07
2013-3-30,53.6,41.4,35.9,41.4,36.0,30.6,96,82,56,30.01,29.75,31,7,31,0.43
2013-3-31,38.6,33.4,24.4,31.1,21.8,10.8,88,65,37,30.01,29.69,35,9,35,0.00